TimeEDT,TemperatureF,Dew PointF,Humidity,Sea Level PressureIn,VisibilityMPH,Wind Direction,Wind SpeedMPH,Gust SpeedMPH,PrecipitationIn,Events,Conditions,WindDirDegrees,DateUTC
12:15 AM,50.0,48.4,94,30.23,5.0,Calm,Calm,-,N/A,,Clear,0,2013-05-27 04:15:00
12:35 AM,49.5,48.0,95,30.23,5.0,Calm,Calm,-,N/A,,Clear,0,2013-05-27 04:35:00
12:55 AM,49.5,48.0,95,30.23,1.0,Calm,Calm,-,N/A,,Mist,0,2013-05-27 04:55:00
1:15 AM,49.1,47.5,94,30.23,10.0,Calm,Calm,-,N/A,,Clear,0,2013-05-27 05:15:00
1:35 AM,48.2,46.8,95,30.23,1.5,Calm,Calm,-,N/A,,Mist,0,2013-05-27 05:35:00
1:55 AM,48.0,46.6,95,30.23,5.0,Calm,Calm,-,N/A,,Scattered Clouds,0,2013-05-27 05:55:00
2:15 AM,48.2,46.9,95,30.23,10.0,Calm,Calm,-,N/A,,Clear,0,2013-05-27 06:15:00
2:35 AM,47.7,46.2,95,30.24,0.5,Calm,Calm,-,N/A,Fog,Fog,0,2013-05-27 06:35:00
2:55 AM,46.6,45.0,94,30.24,10.0,Calm,Calm,-,N/A,,Scattered Clouds,0,2013-05-27 06:55:00
3:15 AM,46.9,45.5,95,30.24,1.2,Calm,Calm,-,N/A,,Scattered Clouds,0,2013-05-27 07:15:00
3:35 AM,46.9,45.7,95,30.24,0.2,Calm,Calm,-,N/A,Fog,Fog,0,2013-05-27 07:35:00
3:55 AM,46.4,45.0,95,30.24,1.0,Calm,Calm,-,N/A,,Mostly Cloudy,0,2013-05-27 07:55:00
4:15 AM,46.2,45.0,95,30.24,5.0,Calm,Calm,-,N/A,,Clear,0,2013-05-27 08:15:00
4:35 AM,45.9,44.4,95,30.25,4.0,Calm,Calm,-,N/A,,Clear,0,2013-05-27 08:35:00
4:55 AM,46.2,44.8,95,30.24,1.0,Calm,Calm,-,N/A,,Mist,0,2013-05-27 08:55:00
5:15 AM,46.6,45.3,95,30.24,1.5,Calm,Calm,-,N/A,,Mist,0,2013-05-27 09:15:00
5:35 AM,46.2,45.0,95,30.25,2.0,Calm,Calm,-,N/A,,Clear,0,2013-05-27 09:35:00
5:55 AM,45.5,44.2,95,30.26,0.8,Calm,Calm,-,N/A,,Mist,0,2013-05-27 09:55:00
6:15 AM,45.7,44.4,95,30.27,1.8,Calm,Calm,-,N/A,,Mist,0,2013-05-27 10:15:00
6:35 AM,46.2,45.0,95,30.27,10.0,Calm,Calm,-,N/A,,Clear,0,2013-05-27 10:35:00
6:55 AM,48.0,46.6,95,30.28,10.0,Calm,Calm,-,N/A,,Clear,0,2013-05-27 10:55:00
7:15 AM,50.2,48.9,95,30.28,10.0,Calm,Calm,-,N/A,,Clear,0,2013-05-27 11:15:00
7:35 AM,52.5,50.9,94,30.28,10.0,Calm,Calm,-,N/A,,Clear,0,2013-05-27 11:35:00
7:55 AM,55.6,51.8,87,30.28,10.0,Calm,Calm,-,N/A,,Clear,0,2013-05-27 11:55:00
8:15 AM,59.9,52.2,76,30.29,10.0,Calm,Calm,-,N/A,,Clear,0,2013-05-27 12:15:00
8:35 AM,63.3,51.8,66,30.29,10.0,SSW,3.5,-,N/A,,Clear,200,2013-05-27 12:35:00
8:55 AM,66.0,50.9,58,30.29,10.0,South,3.5,-,N/A,,Clear,190,2013-05-27 12:55:00
9:15 AM,68.0,50.7,54,30.30,10.0,SSW,3.5,-,N/A,,Clear,210,2013-05-27 13:15:00
9:35 AM,70.0,49.8,49,30.29,10.0,SSW,5.8,-,N/A,,Clear,200,2013-05-27 13:35:00
9:55 AM,71.2,48.6,45,30.29,10.0,South,4.6,-,N/A,,Clear,180,2013-05-27 13:55:00
10:15 AM,72.7,47.7,41,30.29,10.0,South,5.8,-,N/A,,Clear,190,2013-05-27 14:15:00
10:35 AM,73.6,45.7,37,30.29,10.0,South,5.8,-,N/A,,Clear,190,2013-05-27 14:35:00
10:55 AM,74.1,43.7,34,30.28,10.0,SE,3.5,-,N/A,,Clear,140,2013-05-27 14:55:00
11:15 AM,75.2,43.2,32,30.28,10.0,SSE,5.8,-,N/A,,Clear,150,2013-05-27 15:15:00
11:35 AM,75.6,42.6,31,30.28,10.0,SSE,3.5,-,N/A,,Clear,150,2013-05-27 15:35:00
11:55 AM,76.1,41.9,29,30.28,10.0,South,5.8,-,N/A,,Clear,180,2013-05-27 15:55:00
12:15 PM,77.0,43.2,30,30.28,10.0,ESE,6.9,-,N/A,,Clear,110,2013-05-27 16:15:00
12:35 PM,77.4,43.7,30,30.27,10.0,SSW,5.8,-,N/A,,Clear,210,2013-05-27 16:35:00
12:55 PM,77.4,42.6,29,30.27,10.0,South,3.5,-,N/A,,Clear,170,2013-05-27 16:55:00
1:15 PM,77.7,42.6,29,30.26,10.0,SW,4.6,-,N/A,,Clear,230,2013-05-27 17:15:00
1:35 PM,78.3,43.5,29,30.26,10.0,South,5.8,-,N/A,,Clear,170,2013-05-27 17:35:00
1:55 PM,78.6,43.5,29,30.25,10.0,WNW,4.6,-,N/A,,Clear,300,2013-05-27 17:55:00
2:15 PM,79.0,43.3,28,30.25,10.0,SSE,6.9,-,N/A,,Clear,160,2013-05-27 18:15:00
2:35 PM,79.3,43.7,28,30.25,10.0,SSW,5.8,-,N/A,,Clear,210,2013-05-27 18:35:00
2:55 PM,79.3,44.1,29,30.23,10.0,WNW,5.8,-,N/A,,Clear,300,2013-05-27 18:55:00
3:15 PM,79.5,44.4,29,30.23,10.0,SW,8.1,-,N/A,,Clear,220,2013-05-27 19:15:00
3:35 PM,79.9,44.1,28,30.23,10.0,SW,4.6,-,N/A,,Clear,220,2013-05-27 19:35:00
3:55 PM,80.1,44.6,29,30.22,10.0,Calm,Calm,-,N/A,,Clear,0,2013-05-27 19:55:00
4:15 PM,80.4,44.4,28,30.21,10.0,South,5.8,-,N/A,,Scattered Clouds,190,2013-05-27 20:15:00
4:35 PM,79.0,45.9,31,30.21,10.0,South,4.6,-,N/A,,Mostly Cloudy,180,2013-05-27 20:35:00
4:55 PM,79.0,45.9,31,30.21,10.0,SSW,4.6,-,N/A,,Mostly Cloudy,200,2013-05-27 20:55:00
5:15 PM,80.1,46.4,31,30.20,10.0,SSE,5.8,-,N/A,,Scattered Clouds,150,2013-05-27 21:15:00
5:35 PM,79.5,45.7,30,30.19,10.0,South,6.9,-,N/A,,Clear,180,2013-05-27 21:35:00
5:55 PM,79.2,45.7,31,30.19,10.0,South,4.6,-,N/A,,Clear,170,2013-05-27 21:55:00
6:15 PM,78.8,45.5,31,30.19,10.0,SE,8.1,-,N/A,,Clear,140,2013-05-27 22:15:00
6:35 PM,78.4,45.9,32,30.19,10.0,SSE,5.8,-,N/A,,Clear,150,2013-05-27 22:35:00
6:55 PM,77.7,46.0,33,30.20,10.0,South,4.6,-,N/A,,Clear,180,2013-05-27 22:55:00
7:15 PM,77.0,45.9,33,30.20,10.0,South,3.5,-,N/A,,Clear,180,2013-05-27 23:15:00
7:35 PM,75.9,46.9,36,30.20,10.0,Calm,Calm,-,N/A,,Clear,0,2013-05-27 23:35:00
7:55 PM,74.7,48.9,40,30.20,10.0,Calm,Calm,-,N/A,,Clear,0,2013-05-27 23:55:00
8:15 PM,69.8,54.7,59,30.20,10.0,Calm,Calm,-,N/A,,Clear,0,2013-05-28 00:15:00
8:35 PM,65.7,57.2,74,30.20,10.0,Calm,Calm,-,N/A,,Clear,0,2013-05-28 00:35:00
8:55 PM,63.3,57.6,81,30.19,10.0,SSE,3.5,-,N/A,,Clear,160,2013-05-28 00:55:00
9:15 PM,62.6,55.8,78,30.19,10.0,SE,4.6,-,N/A,,Clear,140,2013-05-28 01:15:00
9:35 PM,68.2,51.3,55,30.20,10.0,SSE,4.6,-,N/A,,Clear,150,2013-05-28 01:35:00
9:55 PM,68.9,51.8,54,30.21,10.0,SSE,5.8,-,N/A,,Clear,160,2013-05-28 01:55:00
10:15 PM,68.5,51.6,55,30.22,10.0,SSE,5.8,-,N/A,,Clear,160,2013-05-28 02:15:00
10:35 PM,67.6,51.8,57,30.23,10.0,South,5.8,-,N/A,,Clear,170,2013-05-28 02:35:00
10:55 PM,67.3,51.4,57,30.23,10.0,SSE,4.6,-,N/A,,Clear,160,2013-05-28 02:55:00
11:15 PM,66.9,50.9,56,30.23,10.0,SSE,4.6,-,N/A,,Clear,160,2013-05-28 03:15:00
11:35 PM,66.0,50.7,58,30.24,10.0,South,3.5,-,N/A,,Clear,170,2013-05-28 03:35:00
11:55 PM,65.3,50.7,59,30.24,10.0,SSE,3.5,-,N/A,,Clear,160,2013-05-28 03:55:00